Regional Weather Roundup
Issued by NWS

Home | Current Version | Previous Version | Graphics & Text | Print | Product List | Glossary On
Versions: 1 2 3 4 5 6 7 8 9 10 11 12 13 14 15 16 17 18 19 20 21 22 23 24 25 26 27 28 29 30 31 32 33 34 35 36 37 38 39 40 41 42 43 44 45 46 47 48 49 50
000
ASUS43 KOAX 280902
RWRNE

WEATHER ROUNDUP FOR NEBRASKA
NATIONAL WEATHER SERVICE OMAHA NE
400 AM CDT SUN MAY 28 2017

NOTES: SATELLITE DATA IS BEING USED TO AUGMENT CLOUD COVER ABOVE
       12000 FEET.
       "FAIR" INDICATES FEW OR NO CLOUDS BELOW 12,000 FEET WITH NO
       SIGNIFICANT WEATHER AND/OR OBSTRUCTIONS TO VISIBILITY.

  * THESE STATIONS DO NOT REPORT WEATHER SUCH AS RAIN...SNOW OR FOG.

NEZ001>004-019>022-054>056-281000-
NEBRASKA PANHANDLE

CITY           SKY/WX    TMP DP  RH WIND       PRES   REMARKS
SCOTTSBLUFF    CLEAR     43  39  86 NW6       30.16R
ALLIANCE       CLEAR     42  39  89 W12       30.10F
CHADRON        CLEAR     47  41  80 SW7       30.10R
GORDON         FAIR      45  40  83 W9        30.07S
KIMBALL        CLEAR     43  37  80 W8        30.19S
SIDNEY         CLEAR     44  38  79 W13       30.15F
$$

NEZ057>060-069>072-079>082-281000-
SOUTHWEST NEBRASKA

CITY           SKY/WX    TMP DP  RH WIND       PRES   REMARKS
NORTH PLATTE   CLEAR     42  41  96 NW7       30.04F
IMPERIAL       CLEAR     50  41  71 W13       30.09F
LEXINGTON      CLEAR     49  46  92 NW7       30.02S
MCCOOK         CLEAR     48  48 100 W8        30.06S
OGALLALA       CLEAR     45  43  93 W8        30.09S
$$

NEZ005>010-023>029-035>040-094-281000-
NORTH CENTRAL NEBRASKA

CITY           SKY/WX    TMP DP  RH WIND       PRES   REMARKS
VALENTINE      CLEAR     48  42  80 W6        29.99F
AINSWORTH      CLEAR     50  45  83 W6        29.98F
BROKEN BOW     CLEAR     55  44  66 W12       29.99F
O`NEILL        CLEAR     53  45  74 W8        29.94F
ORD            CLEAR     51  46  83 NW7       29.95F
THEDFORD       CLEAR     47  45  90 NW6       30.03S
$$

NEZ041-046>049-061>064-073>077-083>087-281000-
SOUTH CENTRAL NEBRASKA

CITY           SKY/WX    TMP DP  RH WIND       PRES   REMARKS
GRAND ISLAND   CLEAR     53  50  89 W9        29.97F
AURORA         CLEAR     52  50  92 W8        29.97S
HASTINGS       CLEAR     54  49  83 W7        29.99S
HEBRON         CLEAR     56  53  90 W6        29.97F
HOLDREGE       CLEAR     54  48  80 W9        30.00F
KEARNEY *      CLEAR     55  46  71 W10       29.99F
YORK           CLEAR     52  50  93 W8        29.96F
$$

NEZ011>018-030>034-042>045-281000-
NORTHEAST NEBRASKA

CITY           SKY/WX    TMP DP  RH WIND       PRES   REMARKS
NORFOLK        CLEAR     51  46  83 W7        29.90F
ALBION         CLEAR     55  46  71 NW7       29.93S
BLAIR          CLEAR     55  50  86 SW3       29.91F
FREMONT        CLEAR     56  51  84 W7        29.92F
TEKAMAH        CLEAR     51  47  86 S6        29.89F
WAYNE          CLEAR     55  51  85 W6        29.88F
$$

NEZ050>053-065>068-078-088>093-281000-
SOUTHEAST NEBRASKA

CITY           SKY/WX    TMP DP  RH WIND       PRES   REMARKS
LINCOLN        CLEAR     55  50  83 S5        29.93F
OMAHA EPPLEY   PTCLDY    53  49  86 CALM      29.90F
BEATRICE       CLEAR     55  53  92 W5        29.95F
FALLS CITY     CLEAR     57  55  93 W8        29.91S
NEBRASKA CITY  PTCLDY    58  54  87 W5        29.92F
PLATTSMOUTH    CLEAR     58  54  86 W3        29.91F
$$

NEZ044-045-051>053-067-281000-
OMAHA AREA

CITY           SKY/WX    TMP DP  RH WIND       PRES   REMARKS
OMAHA EPPLEY   PTCLDY    53  49  86 CALM      29.90F
BLAIR          CLEAR     55  50  86 SW3       29.91F
FREMONT        CLEAR     56  51  84 W7        29.92F
MILLARD        CLEAR     56  54  94 CALM      29.91F
OFFUTT AFB     CLEAR     52  51  95 W3        29.90F
PLATTSMOUTH    CLEAR     58  54  86 W3        29.91F
WAHOO          FAIR      53  49  87 CALM      29.92F
$$




USA.gov is the U.S. government's official web portal to all federal, state and local government web resources and services.